Койтендаг

Туркменистан     37°30′47″N   66°00′49″E
темп.,
°C
ветер,
м/с
пор.,
м/с
влажн.,
%
обл.,
%
осадки,
мм/ч
давл.,
гПа
погр.,
м
16 октября, сб
сб1623:00+17зсз45159 0.0 101843
02:00+15зсз331866 0.0 101717
05:00+13зсз332151 0.0 101719
08:00+14з342299 0.0 1019104
11:00+19зсз3314100 0.0 1018610
14:00+23сз441235 0.0 10161038
17:00+22сз561183 0.0 1015767
20:00+18зсз451311 0.0 101648
17 октября, вс
вс1723:00+16з4315100 0.0 101723
02:00+14зюз2218100 0.0 101611
05:00+12юз1121100 0.0 101610
08:00+14юз2219100 0.0 101859
11:00+19юз1115100 0.0 1017491
14:00+22зсз2212100 0.0 1014975
17:00+23сз4512100 0.0 1014321
20:00+18зсз341799 0.0 101531
18 октября, пн
пн1823:00+17з2219100 0.0 101511
02:00+14ююз012226 0.0 101511
05:00+13ююв11245 0.0 101411
08:00+15ю12210 0.0 101419
11:00+21ссз11130 0.0 1013552
14:00+24с22110 0.0 10101010
17:00+24сз45100 0.0 1010161
20:00+19сз34140 0.0 101119
19 октября, вт
вт1923:00+16ссз11170 0.0 101211
02:00+17вюв33170 0.0 101211
05:00+15юв45190 0.0 101339
08:00+17юв36180 0.0 101483
11:00+26вюв78100 0.0 1014964
14:00+29юв7670 0.0 10121322
17:00+27вюв4685 0.0 1011105
20:00+21вюв441315 0.0 101220
20 октября, ср
ср2023:00+20всв2213100 0.0 101214
02:00+21с2212100 0.0 101211
05:00+19зюз2213100 0.0 101211
08:00+20юз221494 0.0 101332
11:00+26ссз229100 0.0 1013473
14:00+28ссз227100 0.0 1010945
17:00+27сз458100 0.0 101084
20:00+24сз5710100 0.0 101173